Probability
0 0 0 0 0 0 0 0 0 0 0 0 0 0 0 0 0 0 0 0 0 0 0 1 2 2 4 4 4 3 3 3 3 3 3 2 1 0 0 1 2 3 3 3 3 1 0 0 0
0 0 0 0 0 0 0 0 0 0 0 0 0 0 0 0 0 0 0 0 0 0 0 1 2 3 4 5 4 4 4 4 4 3 3 2 1 0 0 0 1 2 3 3 3 2 1 1 0
0 0 0 0 0 0 0 0 0 0 0 0 0 0 0 0 0 0 0 0 0 0 0 1 2 3 4 5 5 4 4 4 4 4 3 2 1 1 0 0 1 2 2 3 3 3 3 2 1
0 0 0 0 0 0 0 0 0 0 0 0 0 0 0 0 0 0 0 0 0 0 0 1 2 3 3 2 3 4 4 4 4 4 4 4 3 2 1 1 2 2 2 2 3 3 3 2 1
0 0 0 0 0 0 0 0 0 0 0 0 0 0 0 0 0 0 0 0 0 0 0 0 1 2 2 1 1 2 3 3 3 3 4 4 3 2 2 2 3 2 1 1 1 3 3 2 1
0 0 0 0 0 0 0 0 0 0 0 0 0 0 0 0 0 0 0 0 0 0 0 0 0 1 1 0 0 1 2 2 2 2 2 2 2 2 2 3 3 2 1 0 1 2 2 1 0
0 0 0 0 0 0 0 0 0 0 0 0 0 0 0 0 0 1 1 0 0 0 0 0 0 0 0 0 0 1 1 1 1 1 1 1 1 2 2 2 3 3 2 1 2 2 1 0 0
0 0 0 0 0 0 0 0 0 0 0 0 0 0 0 0 1 2 3 2 1 1 0 0 0 0 0 0 1 2 1 0 0 0 0 0 0 1 1 1 2 3 3 3 3 2 1 0 0
0 0 0 0 0 0 0 0 0 0 0 0 0 0 0 1 3 3 4 3 3 2 0 0 1 0 0 0 1 2 1 0 0 0 0 0 0 0 0 0 1 2 3 3 3 2 1 0 0
0 0 0 0 0 0 0 0 0 0 0 0 0 0 0 2 4 3 2 2 2 1 0 1 1 0 0 0 1 1 0 0 0 0 0 0 0 0 0 0 0 1 2 3 2 1 0 0 0
0 0 0 0 0 0 0 0 0 0 0 0 0 0 0 1 3 3 2 2 1 0 1 1 1 0 0 0 0 0 0 0 0 0 0 0 0 0 0 0 0 0 1 2 1 0 0 0 0
0 0 0 0 0 0 0 0 0 0 0 0 0 0 0 1 3 4 4 3 3 1 1 2 2 1 0 0 0 0 0 0 0 0 0 0 0 0 0 0 0 0 1 1 0 0 0 0 0
0 0 0 0 0 0 0 0 0 0 0 0 0 0 0 1 3 4 4 5 5 3 2 2 3 2 1 0 0 0 0 0 0 0 0 0 0 0 0 0 0 0 0 0 0 0 0 0 0
0 0 0 0 0 0 0 0 0 0 0 0 0 0 0 1 2 3 4 6 6 4 2 2 2 2 1 1 0 0 0 0 0 0 0 0 0 0 0 0 0 0 0 0 0 0 0 0 0
0 0 0 0 0 0 0 0 0 0 0 0 0 0 0 0 1 1 3 5 6 5 4 2 2 3 3 2 1 0 0 0 0 0 0 0 0 0 0 0 0 0 0 0 0 0 0 0 0
0 0 0 0 0 0 0 0 0 0 0 0 0 0 0 0 0 0 1 2 4 5 5 3 3 3 3 3 1 1 0 0 0 0 0 0 0 0 0 0 0 0 0 0 0 0 0 0 0
0 0 0 0 0 0 0 0 0 0 0 0 0 0 0 0 0 0 0 0 2 4 5 4 3 3 3 3 3 2 1 0 0 0 0 0 0 0 0 0 0 0 0 0 0 0 0 0 0
0 0 0 0 0 0 0 0 0 0 0 0 0 0 0 0 0 0 0 0 1 3 4 4 4 3 3 3 3 3 2 1 0 0 0 0 0 0 0 0 0 0 0 0 0 0 0 0 0
0 0 0 0 0 0 0 0 0 0 0 0 0 0 0 0 0 0 0 0 0 1 3 5 5 4 3 3 3 3 3 1 1 0 0 0 0 0 0 0 0 0 0 0 0 0 0 0 0
0 0 0 0 0 0 0 0 0 0 0 0 0 0 0 0 0 0 0 0 0 0 2 5 6 5 4 3 3 3 2 2 2 1 0 0 0 0 1 0 0 0 0 0 0 0 0 0 0
0 0 0 0 0 0 0 0 0 0 0 0 0 0 0 0 0 0 0 0 0 0 1 4 6 6 5 4 3 3 2 1 2 1 0 0 0 0 0 0 0 0 0 0 0 0 0 0 0
0 0 0 0 0 0 0 0 0 0 0 0 0 0 0 0 0 0 0 0 0 0 1 3 5 6 6 4 3 3 2 1 1 1 1 0 0 0 0 0 0 0 0 0 0 0 0 0 0
0 0 0 0 0 0 0 0 0 0 0 0 0 0 0 0 0 0 0 0 0 0 1 2 4 6 6 5 4 2 1 0 0 0 1 0 0 0 0 0 0 0 0 0 0 0 0 0 0
0 0 0 0 0 0 0 0 0 0 0 0 0 0 0 0 0 0 0 0 0 0 0 1 3 5 6 6 5 3 1 0 0 0 0 0 0 0 0 0 0 0 0 0 0 0 0 0 0
0 0 0 0 0 0 0 0 0 0 0 0 0 0 0 0 0 0 0 0 0 0 0 1 2 4 4 5 6 4 1 0 0 0 0 0 0 0 0 0 0 0 0 0 0 0 0 0 0
0 0 0 0 0 0 0 0 0 0 0 0 0 0 0 0 0 0 0 0 0 0 0 0 1 3 3 4 5 4 2 0 0 0 0 0 0 0 0 0 0 0 0 0 0 0 0 0 0
0 0 0 0 0 0 0 0 0 0 0 0 0 0 0 0 0 0 0 0 0 0 0 0 1 2 3 3 4 4 2 1 0 0 0 0 0 0 0 0 0 0 0 0 0 0 0 0 0
0 0 0 0 0 0 0 0 0 0 0 0 0 0 0 0 0 0 0 0 0 0 0 0 0 1 2 3 3 3 3 2 1 0 0 0 0 0 0 0 0 0 0 0 0 0 0 0 0
0 0 0 0 0 0 0 0 0 0 0 0 0 0 0 0 0 0 0 0 0 0 0 0 0 0 1 2 3 3 3 3 1 0 0 0 0 0 0 0 0 0 0 0 0 0 0 0 0
0 0 0 0 0 0 0 0 0 0 0 0 0 0 0 0 0 0 0 0 0 0 0 0 0 0 0 1 3 3 3 3 2 1 0 0 0 0 0 0 0 0 0 0 0 0 0 0 0
Wind_Speed
4 3 3 4 7 5 2 4 2 1 1 0 1 3 5 4 4 3 0 1 3 3 1 1 5 6 7 8 8 8 8 9 9 9 9 9 9 9 9 10 10 10 10 10 11 11 11 11 12
1 2 5 6 6 1 5 4 4 4 2 3 2 3 3 1 1 2 1 1 3 3 2 2 6 7 7 8 8 8 8 8 9 8 9 9 9 9 9 10 10 10 10 10 10 11 11 11 11
2 4 5 5 4 6 5 3 4 1 1 2 2 2 1 1 1 2 1 3 4 3 2 2 6 7 8 8 9 8 8 8 9 9 9 8 8 8 9 9 10 10 10 10 10 10 10 10 10
3 5 6 4 4 5 4 2 2 2 1 2 3 2 1 1 1 1 2 4 5 3 3 2 7 7 8 8 8 8 8 8 8 9 9 9 8 8 9 8 9 9 9 9 9 9 9 9 10
5 5 4 1 4 3 3 2 2 2 2 1 3 2 0 2 2 3 4 4 5 3 3 2 6 7 7 7 8 8 8 8 8 8 9 9 8 8 8 8 8 8 8 8 8 8 8 9 9
5 5 4 4 5 3 2 2 2 2 1 2 3 3 1 1 2 3 4 4 4 3 3 3 5 6 7 7 8 8 8 8 8 8 8 9 9 8 7 7 7 8 8 8 8 8 8 8 8
5 5 4 4 3 3 3 2 3 3 2 3 4 4 1 0 1 3 4 4 4 4 4 4 3 4 6 7 8 8 8 9 8 8 9 8 8 8 7 7 7 7 7 7 7 8 8 8 8
5 5 2 3 3 4 1 1 1 3 3 1 4 5 3 2 3 4 5 5 4 4 4 4 4 4 4 4 7 9 9 9 9 9 9 9 8 8 8 7 7 7 7 7 7 7 7 8 8
4 4 3 5 5 3 1 1 1 1 3 2 1 0 1 6 6 6 4 3 3 3 3 3 4 4 4 4 6 7 8 8 8 7 9 8 4 4 4 6 7 7 7 7 7 7 8 8 8
4 4 6 3 3 2 1 1 1 2 2 1 1 3 3 6 7 6 5 4 3 2 2 2 3 3 3 3 3 3 4 4 4 4 4 3 3 3 4 7 7 8 7 7 7 8 8 6 4
3 4 3 1 1 1 1 1 1 3 1 3 4 2 4 5 5 5 4 4 3 2 2 2 2 3 3 2 2 2 2 2 3 4 3 3 3 3 3 2 3 4 5 4 4 5 3 3 3
3 1 1 1 0 1 1 1 1 1 3 2 2 5 6 6 6 5 5 3 2 3 2 2 2 2 3 2 2 2 2 2 2 2 3 2 2 2 2 2 2 2 2 2 2 2 3 3 3
2 1 1 1 0 1 1 1 1 2 3 2 4 5 5 5 4 2 2 2 2 2 2 1 2 2 2 3 2 2 2 2 1 1 2 2 2 2 2 1 1 2 1 2 2 2 2 2 3
1 1 1 1 0 0 1 0 1 3 2 4 4 3 2 3 3 2 1 1 1 2 1 1 2 2 2 2 2 2 2 1 1 1 1 2 1 1 1 1 1 1 1 1 1 2 2 1 2
1 1 2 1 1 1 2 2 1 3 2 3 2 1 1 1 1 1 2 2 1 1 1 1 2 2 2 3 2 2 1 1 1 1 1 1 1 1 1 1 1 1 1 1 1 2 2 2 2
2 2 2 2 0 1 2 5 2 1 3 1 1 1 1 1 1 1 1 1 1 1 1 0 1 2 2 2 2 1 1 1 1 1 1 1 1 1 1 1 1 1 1 1 1 1 1 1 1
3 1 3 3 0 1 2 4 3 2 2 0 1 1 1 2 2 2 2 2 2 1 1 1 1 2 2 2 1 2 1 1 1 1 1 1 1 1 1 1 1 1 1 0 1 1 1 1 1
3 2 3 4 2 1 2 5 5 2 0 2 2 1 1 2 3 2 1 2 2 2 1 1 1 1 1 2 1 1 1 1 1 0 0 1 0 1 1 1 1 1 1 1 1 1 1 1 1
3 3 4 4 1 1 4 7 7 3 1 2 2 1 2 3 2 3 2 2 2 3 2 1 1 1 1 1 1 1 0 0 0 0 0 1 1 1 1 1 1 0 0 0 1 1 1 1 0
2 3 4 3 1 1 3 7 5 3 2 2 2 2 2 2 4 4 4 3 2 1 1 2 1 1 1 1 1 1 1 1 1 0 0 1 1 0 0 1 1 0 0 1 1 1 0 0 0
3 5 5 4 3 1 3 6 3 1 0 1 1 1 2 2 2 3 4 3 3 2 2 1 2 1 1 0 0 1 1 1 0 1 1 1 1 0 1 1 1 1 1 2 1 1 1 1 1
5 3 3 3 1 3 1 6 5 2 2 2 3 3 3 3 3 3 3 4 4 3 3 2 2 1 0 1 1 1 1 1 2 1 1 2 1 1 1 1 1 2 2 2 2 1 1 2 1
3 1 1 2 3 2 1 3 7 1 2 3 3 3 3 3 3 3 3 3 4 4 4 2 2 1 1 0 1 1 1 1 1 1 1 1 1 1 1 1 1 2 2 3 3 2 2 2 2
1 3 3 3 2 4 5 5 7 3 3 2 3 3 4 3 3 3 4 4 4 4 4 4 3 2 1 1 1 1 1 1 1 1 1 1 1 1 2 2 2 2 2 3 3 3 3 3 2
3 4 3 5 2 6 2 4 8 3 2 2 2 3 4 4 3 4 4 5 5 5 5 4 5 4 2 2 2 2 2 2 3 3 2 2 2 2 2 2 2 2 2 3 3 3 4 4 3
1 4 5 4 5 5 1 6 5 1 1 1 1 2 4 5 4 4 4 4 4 5 5 5 5 5 3 2 3 2 2 2 2 3 3 3 3 3 3 3 3 3 3 3 3 2 3 3 4
2 2 2 3 1 3 6 5 6 1 2 3 3 4 5 5 5 5 5 5 5 5 5 5 5 5 4 3 3 3 2 2 3 3 2 2 3 3 3 3 3 3 3 3 3 3 3 3 4
1 4 3 3 2 5 6 5 4 3 3 2 3 4 4 5 5 5 5 5 5 5 5 5 4 5 4 3 3 3 3 3 3 2 3 3 4 4 4 4 4 4 4 3 3 3 3 4 4
1 2 2 2 3 4 5 7 3 4 2 2 3 3 4 5 5 5 5 5 5 5 5 5 5 5 5 4 4 4 4 3 3 3 3 4 4 4 4 4 4 4 4 4 4 4 4 5 4
2 2 4 3 4 4 3 7 2 1 1 1 2 4 4 5 5 5 5 5 6 6 6 6 5 5 6 5 5 4 4 4 3 4 4 4 4 4 4 4 5 5 5 4 5 5 5 5 5
Wind_Direction
12 39 64 57 58 55 226 240 216 222 222 196 108 124 142 147 161 184 257 136 112 128 140 134 103 99 101 104 100 96 91 85 84 85 86 84 82 80 76 71 69 68 67 67 69 69 69 71 73
35 47 55 61 94 146 255 235 215 211 179 120 70 78 97 123 63 107 157 177 115 115 94 90 98 97 101 102 100 95 91 88 83 81 80 80 80 78 75 70 68 67 66 65 66 67 68 69 71
67 52 81 82 129 184 219 222 213 214 133 129 91 57 110 159 158 172 197 143 106 91 71 101 99 99 98 97 95 92 86 81 81 79 76 75 75 74 73 71 69 67 65 65 64 65 66 65 68
76 52 58 86 201 218 217 231 175 136 90 85 119 89 22 4 205 181 125 122 107 88 64 100 100 100 97 94 94 90 85 81 79 78 75 73 72 69 67 68 69 68 66 66 64 63 65 67 65
60 79 79 92 236 244 244 242 166 152 168 142 133 141 269 358 45 99 114 112 110 90 60 75 102 98 96 92 86 85 83 80 78 75 72 68 67 67 65 64 67 67 68 66 64 62 64 68 67
61 73 113 213 238 257 256 213 160 156 158 137 141 143 221 23 84 109 107 99 96 90 65 62 92 91 89 85 81 78 77 76 73 71 70 67 62 61 61 62 64 65 65 64 66 64 62 65 64
109 112 171 196 221 253 235 177 165 170 179 197 161 145 234 30 116 115 99 88 76 67 60 49 58 72 79 76 71 69 71 70 67 65 63 61 60 55 55 57 58 61 62 61 65 67 64 62 60
122 113 150 197 202 241 222 161 173 169 191 117 132 154 211 205 140 109 89 81 75 62 57 54 53 53 59 67 67 65 62 61 60 57 55 53 55 53 49 47 51 53 56 57 60 66 63 60 58
90 89 199 208 196 229 201 151 12 69 103 73 62 165 205 126 129 114 98 79 78 64 51 57 63 59 57 66 68 64 60 55 54 50 50 48 41 40 42 39 45 48 50 54 56 60 59 56 54
94 161 214 205 192 196 203 169 161 97 77 8 350 19 88 121 135 140 144 148 138 114 68 60 73 71 65 66 67 61 61 54 51 53 46 47 43 35 38 38 44 45 45 48 50 51 51 47 41
127 180 197 226 216 176 160 110 85 128 224 240 232 189 143 139 146 154 160 162 165 151 105 71 78 78 78 77 76 66 63 58 49 51 47 49 48 40 34 34 33 34 37 40 41 42 40 40 40
135 214 181 240 146 104 159 129 95 149 247 297 190 149 148 154 166 174 175 169 154 143 133 98 80 82 83 84 83 81 77 69 56 45 46 59 59 49 35 33 29 37 36 39 39 48 47 46 42
162 210 192 244 305 108 84 108 167 290 316 39 89 114 146 166 179 179 152 124 120 156 153 127 102 98 100 97 94 83 81 77 71 58 41 55 70 61 43 28 28 33 40 51 48 53 51 48 40
190 190 269 298 258 94 139 267 51 296 12 65 83 106 140 168 175 148 134 155 173 178 172 140 120 109 105 106 109 106 94 88 82 64 45 50 63 72 56 36 26 27 31 41 59 61 60 44 40
108 60 329 310 205 207 112 319 266 291 79 73 66 77 90 93 89 175 196 190 191 179 154 157 142 114 110 112 104 104 102 101 88 59 36 41 45 74 70 56 32 8 20 60 71 62 67 61 44
62 57 299 300 41 335 142 257 310 7 101 73 4 358 2 0 30 8 16 22 36 89 122 171 135 119 111 103 111 113 104 98 88 71 46 34 42 72 80 66 27 353 0 81 106 92 78 54 41
34 282 258 294 6 64 153 247 295 33 97 334 307 308 308 338 348 353 14 28 26 36 122 115 105 127 124 103 109 114 108 100 96 81 64 35 52 72 89 84 21 11 29 36 107 83 102 94 44
228 230 252 258 304 95 220 251 283 320 305 272 295 311 326 311 307 327 8 23 27 22 45 102 97 98 113 107 89 84 82 75 78 86 42 41 53 72 84 88 43 26 57 30 49 98 80 121 112
179 199 244 256 293 220 239 259 274 282 294 295 303 305 302 297 330 3 15 31 36 31 32 52 109 96 108 117 130 142 182 239 193 164 23 38 39 83 118 107 96 58 99 71 46 64 100 64 83
209 238 260 287 336 267 273 269 265 257 227 232 266 283 294 336 0 3 10 14 21 20 4 12 342 149 154 190 191 196 200 227 236 358 10 23 24 1 167 151 171 191 123 102 87 73 113 266 74
230 219 238 258 329 341 319 289 251 257 104 23 354 338 350 0 347 347 355 356 357 349 333 330 329 284 196 67 74 63 64 45 39 343 308 319 325 338 314 224 187 192 181 188 199 195 172 216 264
249 233 232 243 270 280 155 285 272 261 315 340 343 350 343 350 357 349 354 351 347 337 332 328 324 322 282 128 137 161 180 219 235 241 264 299 306 304 316 287 225 205 199 194 211 218 228 193 228
232 339 217 215 196 274 235 237 278 338 293 297 314 327 332 339 347 345 348 341 342 347 350 335 341 337 338 192 168 201 233 233 255 266 275 286 295 292 302 281 262 231 222 209 208 219 223 213 216
141 54 55 58 95 261 220 199 273 242 247 297 319 330 339 344 349 348 353 360 355 358 359 356 345 334 338 319 222 213 242 255 254 269 263 275 287 279 285 273 260 253 243 227 220 216 217 222 227
62 75 17 351 338 253 191 208 251 259 270 255 289 328 347 353 352 349 353 356 355 354 353 351 350 333 324 309 279 247 243 238 240 240 235 247 264 266 265 270 262 262 260 248 236 221 224 222 226
179 143 162 222 245 282 291 238 255 284 339 346 338 344 357 355 349 343 342 344 343 343 345 345 340 331 320 300 291 273 257 248 257 260 256 241 248 254 254 254 260 265 261 257 246 235 236 232 232
141 177 168 147 213 276 267 280 297 351 354 1 360 5 355 347 342 340 341 345 344 341 338 334 330 329 320 309 300 291 275 274 271 268 265 267 265 262 256 249 253 258 257 252 244 239 236 233 233
127 148 112 144 210 260 280 270 258 276 285 314 331 336 335 338 338 337 338 337 337 336 333 332 329 324 317 310 300 300 289 277 274 272 268 268 270 268 258 252 251 254 253 250 242 247 240 234 236
105 110 143 174 190 202 266 270 234 229 240 266 297 320 325 328 329 329 330 333 333 333 334 334 329 326 325 316 301 290 286 279 272 268 267 268 270 268 262 253 250 249 250 246 241 242 238 235 240
142 165 155 192 239 207 222 269 308 216 233 272 307 324 329 331 331 332 333 337 340 338 334 330 325 321 317 315 305 292 287 285 277 275 274 271 268 265 263 261 255 250 246 241 238 240 238 232 235